OpenBCM V1.13 (Linux)

Packet Radio Mailbox

DB0FHN

[JN59NK Nuernberg]

 Login: GUEST





  
I0OJJ  > KEPS     26.01.25 05:52l 328 Lines 15576 Bytes #999 (0) @ AMSAT
BID : ORB25026.1
Read: DJ6UX GUEST
Subj: 2Line Orbital Elements 25026.AMSAT
Path: DB0FHN<DB0FFL<OE5XBL<OE6XPE<DB0ERF<DK0WUE<DK0WUE<VK5RSV<PI8ZTM<I0OJJ
Sent: 250126/0345z @:I0OJJ.ITA.EU [Rome] obcm1.08-6-g5b69
From: I0OJJ @ I0OJJ.ITA.EU (Gustavo)
To:   KEPS @ AMSAT
X-Info: This message was generated automatically


QST de W1STR

AMSAT Orbital Elements for Amateur Satellites in TLE Format
From Orbital Analysis Office
New England Sci-Tech STEM Education Center
Natick, MA January 26, 2025
To all radio amateurs


These element sets describe the orbits of various satellites 
in use by the amateur radio community. For details see:
www.amsat.org/keplerian-elements-formats/

A daily update of element sets is available at:
www.amsat.org/tle/daily-bulletin.txt
or without bulletin text:
www.amsat.org/tle/dailytle.txt


AO-07
1 07530U 74089B   25025.56040706 -.00000015  00000-0  19411-3 0  9991
2 07530 101.9920  28.3934 0012278  20.8981 100.4959 12.53685420296906
UO-11
1 14781U 84021B   25025.46356643  .00004193  00000-0  45607-3 0  9999
2 14781  97.7356 354.7286 0009486  67.9950 292.2274 14.88555214202531
AO-27
1 22825U 93061C   25025.38777518  .00000375  00000-0  16044-3 0  9991
2 22825  98.7584  86.1480 0009045 143.6246 216.5552 14.30715319634387
FO-29
1 24278U 96046B   25025.30146036  .00000060  00000-0  99054-4 0  9992
2 24278  98.5884 296.9070 0349643 333.1572  25.1843 13.53233681404728
NOAA-15
1 25338U 98030A   25025.75918919  .00000468  00000-0  21032-3 0  9993
2 25338  98.5499  54.0456 0010855  38.9338 321.2622 14.26866337389176
GO-32
1 25397U 98043D   25025.53053584  .00000320  00000-0  15880-3 0  9997
2 25397  98.9537   1.9551 0000646 185.8480 174.2691 14.24241229379066
ISS
1 25544U 98067A   25025.88568184  .00020020  00000-0  35095-3 0  9991
2 25544  51.6376 291.8951 0002149 137.6206 222.4950 15.50554430493097
NO-44
1 26931U 01043C   25025.53835746  .00000604  00000-0  25783-3 0  9992
2 26931  67.0512 116.9613 0006198 262.2346  97.8052 14.31596556217770
SO-50
1 27607U 02058C   25025.05457816  .00003122  00000-0  41651-3 0  9995
2 27607  64.5541 258.6347 0039835   9.2785 350.9047 14.80831162189159
CO-55
1 27844U 03031E   25025.62246483  .00000990  00000-0  45179-3 0  9998
2 27844  98.6783  35.6373 0009055 214.1213 145.9384 14.23785629119460
CO-57
1 27848U 03031J   25025.50906721  .00000861  00000-0  40058-3 0  9995
2 27848  98.6810  35.6300 0008693 232.5584 127.4803 14.23151123119150
RS-22
1 27939U 03042A   25025.82549878  .00003209  00000-0  52301-3 0  9992
2 27939  98.3106 192.1852 0012646  77.6201  56.7510 14.71650397141002
NOAA-18
1 28654U 05018A   25025.78073911  .00000473  00000-0  27443-3 0  9996
2 28654  98.8550 106.7273 0014810 149.4230 210.7809 14.13497355 14706
CO-58
1 28895U 05043F   25025.38867902  .00004560  00000-0  76722-3 0  9993
2 28895  98.2262 168.3144 0015200  18.9627 341.2142 14.70004443 27307
CO-65
1 32785U 08021C   25025.48215755  .00010414  00000-0  80250-3 0  9995
2 32785  97.7658 356.0353 0008629 321.8962  38.1651 15.01791689908783
AAUSAT2
1 32788U 08021F   25025.41030844  .00092264  00000-0  20085-2 0  9997
2 32788  97.6048  16.1282 0007403  98.7852 261.4234 15.43923552912369
CO-66
1 32791U 08021J   25025.40948029  .00022013  00000-0  12441-2 0  9995
2 32791  97.7149   3.0802 0002151 275.6344  84.4641 15.13109150910018
RS-30
1 32953U 08025A   25025.76006871  .00000013  00000-0  25718-4 0  9997
2 32953  82.5058 311.0472 0019587 342.8221  17.2194 12.43157793756781
NOAA-19
1 33591U 09005A   25025.76531192  .00000414  00000-0  24480-3 0  9993
2 33591  99.0178  89.6100 0014064  28.3644 331.8290 14.13269090823063
SRMSAT
1 37841U 11058D   25025.29899031  .00000707  00000-0  24092-3 0  9997
2 37841  19.9709 253.1471 0011742  17.2954 145.1211 14.11345442685975
ZACUBE-1
1 39417U 13066B   25025.43767772  .00009785  00000-0  89844-3 0  9992
2 39417  97.7632 343.5383 0047484 141.0505 219.4151 14.94174473604717
Delfi-N3xt
1 39428U 13066N   25025.76786372  .00012781  00000-0  13963-2 0  9995
2 39428  97.8381 305.2276 0091987  83.5400 277.6279 14.84912504599228
GOMX-1
1 39430U 13066Q   25025.72677119  .00005650  00000-0  89846-3 0  9993
2 39430  97.7016 252.5907 0133341 263.8104  94.7897 14.66610508595639
LO-74
1 39440U 13066AA  25025.40300500  .00009721  00000-0  10310-2 0  9998
2 39440  97.8359 331.2156 0062687 265.5973  93.8079 14.87832648601329
AO-73
1 39444U 13066AE  25025.46181577  .00012532  00000-0  10258-2 0  9994
2 39444  97.7484 347.5026 0043949 117.2954 243.2754 14.98687260603917
DTUSAT-2
1 40030U 14033W   25025.41358151  .00012984  00000-0  92149-3 0  9992
2 40030  98.0393 351.1646 0011026 145.6227 214.5714 15.04833758576044
EO-80
1 40032U 14033Y   25025.44142439  .00014745  00000-0  10435-2 0  9991
2 40032  98.0282 351.0287 0010899  95.7592 264.4876 15.04909490576028
XW-2C
1 40906U 15049H   25025.84331610  .00357208  49345-4  11979-2 0  9991
2 40906  97.4442  59.4445 0003717 171.4750 188.6587 15.90091123519149
LILACSAT-2
1 40908U 15049K   25025.75478652  .00017228  00000-0  52203-3 0  9993
2 40908  97.5173  43.2102 0008412 287.0680  72.9641 15.34184021517521
IO-86
1 40931U 15052B   25020.20147130  .00001860  00000-0  16130-3 0  9996
2 40931   5.9986 241.3177 0013325 280.8560  79.0069 14.78521742503622
Horyu-4
1 41340U 16012D   25025.16697415  .00030721  00000-0  10741-2 0  9993
2 41340  30.9995 316.9959 0005732  92.2650 267.8649 15.28339194491991
Lapan A3
1 41603U 16040E   25025.82775786  .00007108  00000-0  26018-3 0  9995
2 41603  97.1389  35.8515 0012514  38.1586 322.0538 15.28255654477198
CAS-2T
1 41847U 16066G   25025.20978437  .00003711  00000-0  54110-3 0  9993
2 41847  98.4363 100.8224 0347948 227.6951 129.4269 14.42777971431496
CAS-4B
1 42759U 17034B   25025.49888737  .00052483  00000-0  10671-2 0  9999
2 42759  43.0131  35.8796 0014405  68.1373 292.1016 15.45411028421583
CAS-4A
1 42761U 17034D   25025.46977633  .00052351  00000-0  10493-2 0  9999
2 42761  43.0171  34.0661 0015448  75.5985 284.6587 15.45811912421597
TechnoSat
1 42829U 17042E   25025.44908399  .00006693  00000-0  54040-3 0  9999
2 42829  97.3920 200.7221 0013485  38.7410 321.4779 15.00079438410459
AO-91
1 43017U 17073E   25025.11831597  .00018073  00000-0  98878-3 0  9994
2 43017  97.5485 259.4357 0183622 267.7925  90.2265 15.00961875388869
S-Net D
1 43186U 18014G   25025.24880129  .00010101  00000-0  63502-3 0  9996
2 43186  97.5754 289.6600 0008947 341.5967  18.4937 15.09396717381940
S-Net B
1 43187U 18014H   25025.25265610  .00010270  00000-0  64572-3 0  9995
2 43187  97.5762 289.6285 0009527 335.6694  24.4084 15.09382867381946
S-Net A
1 43188U 18014J   25025.77994836  .00009631  00000-0  60540-3 0  9992
2 43188  97.5770 290.2829 0009359 334.6087  25.4681 15.09411390382024
S-Net C
1 43189U 18014K   25025.25476714  .00010191  00000-0  64067-3 0  9997
2 43189  97.5784 289.7546 0010761 327.1080  32.9478 15.09380493380493
Ten-Koh
1 43677U 18084G   25025.44476946  .00006180  00000-0  51220-3 0  9994
2 43677  98.0806 192.3927 0013026 357.2354   2.8793 14.99154476339985
PO-101
1 43678U 18084H   25025.77515098  .00002976  00000-0  26274-3 0  9993
2 43678  98.0900 196.9377 0009377  20.8219 339.3382 14.97169369340201
QO-100
1 43700U 18090A   25023.77705589  .00000166  00000-0  00000-0 0  9995
2 43700   0.0175  59.2562 0001099 260.9675 108.7123  1.00273782 22569
MinXSS-2
1 43758U 18099A   25025.74764066  .00023249  00000-0  11021-2 0  9995
2 43758  97.5237  91.8250 0012464 269.5313  90.4493 15.19233930336459
AO-95
1 43770U 18099N   25025.68021729  .00015467  00000-0  87361-3 0  9998
2 43770  97.5150  85.4796 0010947 325.8841  34.1686 15.13156180336125
RANGE-A
1 43773U 18099R   25025.64436511  .00008486  00000-0  57172-3 0  9996
2 43773  97.4712  77.9964 0010609 298.4044  61.6114 15.06875673335889
MOVE-II
1 43780U 18099Y   25025.12900721  .00067495  00000-0  17431-2 0  9994
2 43780  97.4879  94.8634 0003895 278.8154  81.2650 15.38885257336761
SNUSat 2
1 43782U 18099AA  25025.09856834  .00013905  00000-0  83031-3 0  9994
2 43782  97.4834  82.6941 0011674 261.6074  98.3833 15.11166382336017
SnugLite
1 43784U 18099AC  25025.60562515  .00015815  00000-0  88724-3 0  9999
2 43784  97.4646  82.5423 0002418 264.5989  95.4966 15.13439457336199
ITASat 1
1 43786U 18099AE  25025.70338963  .00012301  00000-0  75896-3 0  9993
2 43786  97.4799  83.1468 0014437 315.0209  44.9850 15.09974395336086
EAGLET 1
1 43790U 18099AJ  25025.66476009  .00007597  00000-0  51021-3 0  9992
2 43790  97.4985  83.4259 0011241 295.2021  64.8041 15.07027863335731
ESEO
1 43792U 18099AL  25025.71446129  .00003356  00000-0  26255-3 0  9990
2 43792  97.4690  78.4585 0008273 247.4066 112.6284 15.01677630335571
CSIM
1 43793U 18099AM  25025.76498729  .00073546  00000-0  19015-2 0  9992
2 43793  97.5054  97.4450 0007575 249.9901 110.0529 15.38803043336707
JO-97
1 43803U 18099AX  25025.70061455  .00018947  00000-0  99108-3 0  9996
2 43803  97.4898  86.2904 0007043 254.3236 105.7219 15.15877044336305
Suomi 100
1 43804U 18099AY  25025.72730747  .00016351  00000-0  89749-3 0  9993
2 43804  97.4960  85.9226 0012333 255.6340 104.3523 15.14153455336267
ISAT
1 43879U 18111D   25025.30327801  .00028756  00000-0  12564-2 0  9999
2 43879  97.6052 297.4185 0009173 323.7518  36.3095 15.22026271333066
UWE-4
1 43880U 18111E   25025.25795224  .00023510  00000-0  11044-2 0  9998
2 43880  97.5994 296.6399 0012804 332.0497  28.0048 15.19543680333031
Sparrow
1 43881U 18111F   25025.70580700  .00029056  00000-0  12380-2 0  9995
2 43881  97.6174 300.2479 0008456   7.1869 352.9487 15.22885676331206
Prox-1
1 44339U 19036A   25025.23904469  .00017938  00000-0  25495-2 0  9998
2 44339  23.9964 227.8897 0008045 336.4091  23.6036 14.75309085297970
SONATE
1 44400U 19038Q   25025.60699984  .00066175  00000-0  94805-3 0  9992
2 44400  97.7108  38.8343 0011830  38.8729 321.3373 15.55880677308381
